Location: Unspecified
(0.0000°N, 0.0000°E)
Time: 05:32:06
(UTC+00:00)

deb Explorer IX - Visible Passes

Search period start: 18 June 2019 00:00
Search period end: 28 June 2019 00:00
Orbit: 537 x 1115 km, 38.8° (Epoch: 16 June)

Date Brightness Start Highest point End Pass type
(mag) Time Alt. Az. Time Alt. Az. Time Alt. Az.
21 Jun ? 20:59:28 10° NNW 21:00:41 15° N 21:00:41 15° N visible
22 Jun ? 20:37:23 10° NNW 20:40:05 21° N 20:40:05 21° N visible
23 Jun ? 20:15:17 10° NNW 20:19:31 27° NNE 20:19:31 27° NNE visible
24 Jun ? 19:53:12 10° NNW 19:58:52 31° NE 19:59:01 31° NE visible
25 Jun ? 19:31:06 10° NNW 19:37:00 33° NE 19:38:33 29° ENE visible
25 Jun ? 21:18:27 10° WNW 21:19:57 17° WNW 21:19:57 17° WNW visible
26 Jun ? 19:09:00 10° NNW 19:15:08 35° NE 19:18:08 23° E visible
26 Jun ? 20:56:28 10° WNW 20:59:32 26° W 20:59:32 26° W visible
27 Jun ? 18:46:55 10° NNW 18:53:15 36° NE 18:57:45 15° E visible
27 Jun ? 20:34:27 10° WNW 20:39:09 35° WSW 20:39:09 35° WSW visible
